Weather History for KAPN - May, 2013

Change the Weather History Date:

Sunday, May 12, 2013

  Actual Average Record
Temperature  
Mean Temperature 37 °F 51 °F  
Max Temperature 41 °F 63 °F 87 °F (2004)
Min Temperature 32 °F 39 °F 23 °F (1934)
Degree Days  
Heating Degree Days 28 14  
Month to date heating degree days 143 188  
Since 1 July heating degree days 7384 7747  
Cooling Degree Days 0 0  
Month to date cooling degree days 1 0  
Year to date cooling degree days 1 2  
Moisture  
Dew Point 29 °F    
Average Humidity 72    
Maximum Humidity 89    
Minimum Humidity 54    
Precipitation  
Precipitation 0.06 in 0.08 in 1.13 in (2000)
Month to date precipitation 1.71 0.96  
Year to date precipitation 12.38 8.19  
Sea Level Pressure  
Sea Level Pressure 29.81 in    
Wind  
Wind Speed 13 mph (WNW)    
Max Wind Speed 26 mph    
Max Gust Speed 40 mph    
Visibility 7 miles    
Events Rain , Snow    
T = Trace of Precipitation, MM = Missing Value Source: NWS Daily Summary

Daily Weather History Graph

Daily Weather History Graph

Search for Another Location

Airport or City:

Trip Planner

Search our weather history database for the weather conditions in past years. The results will help you decide how hot, cold, wet, or windy it might be!

Date:

Astronomy

May. 12, 2013 Rise Set
Actual Time 6:08 AM EDT 8:53 PM EDT
Civil Twilight 5:34 AM EDT 9:27 PM EDT
Nautical Twilight 4:51 AM EDT 10:10 PM EDT
Astronomical Twilight 4:01 AM EDT 11:01 PM EDT
Moon 8:00 AM EDT (5/12) 11:21 PM EDT (5/12)
Length of Visible Light 15h 53m
Length of Day
14h 45m
Waxing Crescent, 6% of the Moon is Illuminated
May 12
Waxing Crescent
May 18
First Quarter
May 25
Full
May 31
Last Quarter
Jun 8
New

Hourly Weather History & Observations

Time (EDT) Temp. Windchill Dew Point Humidity Pressure Visibility Wind Dir Wind Speed Gust Speed Precip Events Conditions
12:54 AM 36.0 °F 29.6 °F 30.9 °F 82% 29.73 in 10.0 mi West 8.1 mph - N/A   Clear
1:54 AM 36.0 °F 29.6 °F 30.9 °F 82% 29.71 in 10.0 mi WSW 8.1 mph - N/A   Clear
2:13 AM 35.6 °F 27.5 °F 30.2 °F 81% 29.69 in 10.0 mi WSW 11.5 mph 20.7 mph N/A   Mostly Cloudy
2:54 AM 36.0 °F 27.1 °F 30.9 °F 82% 29.69 in 10.0 mi West 13.8 mph 21.9 mph N/A   Overcast
3:54 AM 37.0 °F 29.3 °F 30.9 °F 79% 29.67 in 10.0 mi WSW 11.5 mph 26.5 mph N/A   Overcast
4:54 AM 36.0 °F 27.1 °F 32.0 °F 86% 29.67 in 10.0 mi West 13.8 mph 25.3 mph 0.00 in Rain Light Rain
5:40 AM 33.8 °F 24.8 °F 32.0 °F 93% 29.66 in 6.0 mi West 12.7 mph 19.6 mph 0.02 in Snow Light Snow
5:54 AM 34.0 °F 26.6 °F 32.0 °F 92% 29.69 in 4.0 mi WNW 9.2 mph 18.4 mph 0.02 in Snow Light Snow
6:16 AM 33.8 °F 26.4 °F 30.2 °F 87% 29.68 in 2.5 mi WNW 9.2 mph - 0.02 in Snow Light Snow
6:35 AM 33.8 °F 25.8 °F 30.2 °F 87% 29.69 in 1.5 mi WNW 10.4 mph 17.3 mph 0.03 in Snow Light Snow
6:39 AM 33.8 °F 25.3 °F 30.2 °F 87% 29.69 in 2.0 mi WNW 11.5 mph 17.3 mph 0.03 in Snow Light Snow
6:54 AM 34.0 °F 25.5 °F 30.9 °F 89% 29.72 in 3.0 mi WNW 11.5 mph 17.3 mph 0.03 in Snow Light Snow
7:00 AM 33.8 °F 24.3 °F 30.2 °F 87% 29.70 in 3.0 mi WNW 13.8 mph 25.3 mph 0.00 in Snow Light Snow
7:07 AM 33.8 °F 24.8 °F 30.2 °F 87% 29.70 in 5.0 mi WNW 12.7 mph 25.3 mph 0.00 in Snow Light Snow
7:40 AM 33.8 °F 25.8 °F 30.2 °F 87% 29.72 in 2.5 mi WNW 10.4 mph 23.0 mph 0.01 in Snow Light Snow
7:54 AM 35.1 °F 26.9 °F 30.0 °F 82% 29.74 in 10.0 mi WNW 11.5 mph 23.0 mph 0.01 in   Overcast
8:11 AM 35.6 °F 27.5 °F 30.2 °F 81% 29.72 in 10.0 mi WNW 11.5 mph 21.9 mph N/A   Overcast
8:25 AM 35.6 °F 25.9 °F 30.2 °F 81% 29.73 in 10.0 mi WNW 16.1 mph 25.3 mph N/A   Overcast
8:54 AM 35.1 °F 25.2 °F 28.9 °F 78% 29.76 in 10.0 mi NW 16.1 mph 27.6 mph N/A   Overcast
9:09 AM 35.6 °F 26.2 °F 28.4 °F 75% 29.74 in 10.0 mi WNW 15.0 mph 27.6 mph N/A   Overcast
9:54 AM 37.0 °F 26.7 °F 27.0 °F 67% 29.77 in 10.0 mi NW 19.6 mph 32.2 mph 0.00 in   Overcast
10:21 AM 35.6 °F 25.2 °F 28.4 °F 75% 29.76 in 2.5 mi WNW 18.4 mph 26.5 mph 0.00 in Snow Light Snow
10:27 AM 35.6 °F 25.5 °F 28.4 °F 75% 29.77 in 4.0 mi NW 17.3 mph 29.9 mph 0.00 in Snow Light Snow
10:54 AM 37.0 °F 27.4 °F 28.0 °F 70% 29.79 in 5.0 mi NW 17.3 mph 29.9 mph 0.00 in Snow Light Snow
11:10 AM 35.6 °F 25.2 °F 28.4 °F 75% 29.78 in 1.2 mi West 18.4 mph 31.1 mph 0.00 in Snow Light Snow
11:18 AM 33.8 °F 22.5 °F 28.4 °F 81% 29.78 in 0.8 mi WNW 19.6 mph 31.1 mph 0.00 in Snow Light Snow
11:23 AM 33.8 °F 25.3 °F 30.2 °F 87% 29.78 in 2.0 mi WNW 11.5 mph 28.8 mph 0.00 in Snow Light Snow
11:54 AM 36.0 °F 25.6 °F 30.9 °F 82% 29.81 in 2.5 mi West 18.4 mph 34.5 mph 0.00 in Snow Light Snow
12:02 PM 35.6 °F 24.8 °F 30.2 °F 81% 29.79 in 7.0 mi West 19.6 mph 28.8 mph 0.00 in   Overcast
12:24 PM 35.6 °F 27.5 °F 30.2 °F 81% 29.79 in 1.5 mi West 11.5 mph 29.9 mph 0.00 in Snow Light Snow
12:39 PM 35.6 °F 27.5 °F 30.2 °F 81% 29.79 in 3.0 mi WNW 11.5 mph 32.2 mph 0.00 in Snow Light Snow
12:50 PM 35.6 °F 26.6 °F 30.2 °F 81% 29.79 in 2.5 mi WNW 13.8 mph 28.8 mph 0.00 in Snow Light Snow
12:54 PM 37.0 °F 26.7 °F 30.0 °F 76% 29.82 in 5.0 mi WNW 19.6 mph 28.8 mph 0.00 in Snow Light Snow
1:16 PM 37.4 °F 27.8 °F 26.6 °F 65% 29.80 in 10.0 mi WNW 17.3 mph 34.5 mph 0.00 in   Mostly Cloudy
1:54 PM 39.0 °F 29.3 °F 25.0 °F 57% 29.83 in 10.0 mi WNW 19.6 mph 38.0 mph 0.00 in   Overcast
2:54 PM 39.9 °F 30.5 °F 24.1 °F 53% 29.84 in 10.0 mi NW 19.6 mph 32.2 mph N/A   Overcast
3:54 PM 39.0 °F 29.9 °F 23.0 °F 53% 29.88 in 10.0 mi WNW 17.3 mph 33.4 mph 0.00 in Rain Light Rain
4:54 PM 37.9 °F 29.6 °F 24.1 °F 57% 29.91 in 10.0 mi NW 13.8 mph 32.2 mph 0.00 in   Overcast
5:54 PM 37.0 °F 27.7 °F 28.0 °F 70% 29.95 in 8.0 mi NW 16.1 mph 21.9 mph 0.00 in Snow Light Snow
6:54 PM 37.0 °F 29.8 °F 25.0 °F 62% 29.97 in 10.0 mi WNW 10.4 mph 25.3 mph 0.00 in   Overcast
7:54 PM 36.0 °F 30.3 °F 27.0 °F 70% 30.00 in 10.0 mi WNW 6.9 mph 19.6 mph 0.00 in   Overcast
8:33 PM 33.8 °F 25.8 °F 28.4 °F 81% 29.98 in 6.0 mi WNW 10.4 mph 18.4 mph N/A   Haze
8:40 PM 35.6 °F 28.0 °F 28.4 °F 75% 29.99 in 9.0 mi WNW 10.4 mph 19.6 mph N/A   Overcast
8:54 PM 34.0 °F 27.2 °F 28.0 °F 79% 30.02 in 4.0 mi WNW 8.1 mph - N/A   Haze
9:54 PM 33.1 °F 26.9 °F 28.0 °F 82% 30.04 in 10.0 mi WNW 6.9 mph - N/A   Overcast
10:54 PM 33.1 °F 27.7 °F 26.1 °F 75% 30.04 in 10.0 mi Variable 5.8 mph - N/A   Overcast
11:54 PM 32.0 °F 28.7 °F 26.1 °F 79% 30.04 in 10.0 mi West 3.5 mph - N/A   Mostly Cloudy